Starlink 4443

operational
NORAD ID: 53508 Int'l Des: 2022-099 Owner: SPXS Country: US Constellation: starlink
LEOCIRCULARRETROGRADESSO

About Starlink 4443

Description loading...

Live Position

Loading 3D Globe...

Upcoming Passes

Altitude History

Altitude vs Time

uPlot chart will show altitude changes over time

Two-Line Element Set

1 53508U 22099AV 26041.30524133 .00000335 00000-0 27419-4 0 9995
2 53508 97.6019 164.2465 0000736 90.1657 269.9654 15.05645497191937
Epoch: Feb 10, 2026 • Age: 7 hours

Current Status

Altitude 575.8 km
Velocity 7.57 km/s
Sub-Earth Point -68.46°S, 37.96°W
Launch Date Aug 12, 2022
Age 3.4 years
Type internet

Technical Details

Classification Payload
Mass 300.00 kg
Dry Mass 275.00 kg
Total Mass 300.00 kg
Length 0.20 m
Diameter 2.80 m
Span 9.00 m
Shape Box + pan
Manufacturer SPXS
Bus Type Starlink
Phase Status In Orbit
Owner/State SPXS/US

Large Constellations

Loading constellations...